Preview of NWS' New Version of Forecast
This preview is not operational and should not be used for support decisions.

Regional Weather Roundup (RWR)

Issued by National Weather Service (NWS)

                            
000
ASUS44 KMEG 190100
RWRTN 
TENNESSEE HOURLY STATE WEATHER ROUNDUP
NATIONAL WEATHER SERVICE MEMPHIS TN
800 PM CDT MON MAR 18 2019

TNZ002-004-019-021-049-052-054-088>092-190200-
WEST TENNESSEE
  
CITY           SKY/WX    TMP DP  RH WIND       PRES   REMARKS
MEMPHIS INTL   FAIR      53  27  36 NE10      30.36R                  
NWS MEMPHIS      N/A     51 N/A N/A MISG        N/A                   
JACKSON        FAIR      44  26  49 N3        30.37R                  
DYERSBURG      FAIR      48  24  39 CALM      30.39R                  
$$

TNZ008-025-027-028-033-062-065-066-190200-
NORTH MIDDLE TENNESSEE
  
CITY           SKY/WX    TMP DP  RH WIND       PRES   REMARKS
NASHVILLE      FAIR      47  18  31 N6        30.38R                  
CLARKSVILLE    FAIR      45  18  34 CALM      30.38S                  
SMYRNA         FAIR      43  23  45 N5        30.39R                  
CROSSVILLE     FAIR      40  13  33 N3        30.33S                  
$$

TNZ061-075-076-078-094-096-097-190200-
SOUTH MIDDLE TENNESSEE
  
CITY           SKY/WX    TMP DP  RH WIND       PRES   REMARKS
FAYETTEVILLE   CLEAR     45  18  33 N5        30.33S                  
$$

TNZ017-018-042-046-047-190200-
NORTHEAST TENNESSEE
  
CITY           SKY/WX    TMP DP  RH WIND       PRES   REMARKS
TRI CITIES     FAIR      38  14  37 N6        30.34R WCI  33          
$$

TNZ012-013-036-069-073-074-190200-
CENTRAL EAST TENNESSEE
  
CITY           SKY/WX    TMP DP  RH WIND       PRES   REMARKS
KNOXVILLE      MOCLDY    45  15  30 N7        30.33R                  
OAK RIDGE      FAIR      46  15  28 VRB5      30.36R                  
$$

TNZ083-085-099-190200-
SOUTHEAST TENNESSEE
  
CITY           SKY/WX    TMP DP  RH WIND       PRES   REMARKS
CHATTANOOGA    MOCLDY    47  17  30 NW8       30.33R                  
$$

SKY/WX REPORTED AS FAIR MEANS FEW OR NO CLOUDS BELOW
12 THOUSAND FEET.